Weather Roundup
Issued by NWS Chicago, IL

Home | Current Version | Previous Version | Graphics & Text | Print | Product List | Glossary On
Versions: 1 2 3 4 5 6 7 8 9 10 11 12 13 14 15 16 17 18 19 20 21 22 23 24 25 26 27 28 29 30 31 32 33 34 35 36 37 38 39 40 41 42 43 44 45 46 47 48 49 50
000
NZUS59 KLOT 052102
HRRLOT

CHICAGO AREA WEATHER ROUNDUP
NATIONAL WEATHER SERVICE CHICAGO/ROMEOVILLE IL
400 PM CDT TUE MAY 05 2015

NOTE: "FAIR" INDICATES FEW OR NO CLOUDS BELOW 12,000 FEET WITH NO
SIGNIFICANT WEATHER AND/OR OBSTRUCTIONS TO VISIBILITY.

* THESE STATIONS ARE NOT UNDER NWS QUALITY CONTROL. THEY ALSO MAY NOT
  REPORT WEATHER SUCH AS PRECIPITATION OR FOG.

ILZ005-006-012>014-019>023-052200-
NORTHEAST ILLINOIS

CITY           SKY/WX    TMP DP  RH WIND       PRES   REMARKS
OHARE          CLOUDY    50  49  96 NE12      30.21F FOG
MIDWAY         CLOUDY    57  53  86 NE12      30.20F FOG
AURORA         PTSUNNY   62  54  74 NE13      30.19F HAZE
WAUKEGAN       CLOUDY    46  44  93 N8        30.24F
DUPAGE AIRPORT CLOUDY    56  52  86 NE14      30.20F
WHEELING       CLOUDY    48  46  93 NE10      30.25F FOG
NORTHERLY IS     N/A     49  47  93 N8          N/A
$$

WIZ051-052-058>065-066-070>072-052200-
SOUTHEAST WISCONSIN

CITY           SKY/WX    TMP DP  RH WIND       PRES   REMARKS
MILWAUKEE      CLOUDY    48  44  86 E9        30.27F
KENOSHA*       LGT RAIN  47  45  93 NE13      30.26F
RACINE*        LGT RAIN  47  44  90 NE10      30.27F
WAUKESHA       CLOUDY    48  45  87 E10       30.27F
$$

INZ001>003-010>013-019-020-052200-
NORTHWEST INDIANA

CITY           SKY/WX    TMP DP  RH WIND       PRES   REMARKS
GARY*          FOG       52 N/A N/A N6        30.20F VSB 3/4
MICHIGAN CITY* NOT AVBL
RENSSELAER*    NOT AVBL
$$

LMZ740>746-052200-
SOUTHERN LAKE MICHIGAN

STATION/POSITION TIME  SKY/WX   TEMP WIND        PRES    VSBY
                                AIR  DIR/SP/G
                 (UTC)          (F)  (DEG/KT/KT) (MB)    (MI)
HARRISON CRIB    2000            46   50/ 10/ 13   N/A
BURNHAM HARBOR   2100            49   20/  8/  9   N/A
CALUMET HARBOR   2000            47  340/  6/  9   N/A
BURNS HARBOR     2000            50   40/  3/  4 1023.4F
MICHIGAN CITY    2000            53   40/ 10/ 11   N/A
$$

ABBREVIATIONS USED IN REMARKS
   TC - TEMPERATURE IN CELSIUS
  WCI - WIND CHILL INDEX
   HX - HEAT INDEX
  VSB - VISIBILITY
$$


USA.gov is the U.S. government's official web portal to all federal, state and local government web resources and services.